THY877 FAOR-LTFM

Flight info

Callsign THY877
Flight time N/A
Altitude 33000
Route EGMEN1C EGMEN UQ2 EPSEK UM307 NIGOD UB529 KURLA UR525 VHA UP312 SINGI/N0497F350 UP312 LOSIN UM441 LOTAS/N0503F340 UM308 RUDOL/N0499F350 UM308 GWZ/N0496F360 UT124 ALRAP/N0500F350 DCT KSL/N0496F360 DCT TOMRU P751 AST W8 GINDI/N0487F380 W8 ALPID/N0488F370 DCT GESON/N0483F380 DCT LAGVI Q777 RASDA DCT USEBE M855 TOMBI UA16 AYT UQ23 OSVEL UT337 KFK UM855 SISPI
Aircraft B77W/H-SDE1E2E3FGHIJ2J3J4J5M1RWXY/LB1D1

Departure

Time 2026-05-01 09:57
Airport O.R. Tambo International Airport (FAOR)

Arrival

Time N/A
Airport İstanbul Airport (LTFM)
Time Latitude Longitude Altitude Speed Heading
2026-05-01 09:16 -26.13418 28.23295 5573 ft 0 kts 277°
2026-05-01 09:41 -26.13419 28.23304 5573 ft 2 kts 275°
2026-05-01 09:41 -26.13419 28.23320 5572 ft 2 kts 262°
2026-05-01 09:42 -26.13416 28.23336 5571 ft 2 kts 250°
2026-05-01 09:42 -26.13410 28.23351 5570 ft 2 kts 238°
2026-05-01 09:42 -26.13390 28.23375 5569 ft 2 kts 215°
2026-05-01 09:43 -26.13363 28.23389 5567 ft 2 kts 192°
2026-05-01 09:43 -26.13355 28.23391 5567 ft 1 kts 186°
2026-05-01 09:43 -26.13352 28.23391 5567 ft 0 kts 187°
2026-05-01 09:45 -26.13370 28.23389 5567 ft 5 kts 187°
2026-05-01 09:45 -26.13406 28.23391 5568 ft 3 kts 153°
2026-05-01 09:46 -26.13421 28.23416 5567 ft 5 kts 107°
2026-05-01 09:46 -26.13427 28.23467 5564 ft 8 kts 98°
2026-05-01 09:46 -26.13436 28.23546 5559 ft 11 kts 97°
2026-05-01 09:46 -26.13492 28.23586 5558 ft 9 kts 187°
2026-05-01 09:47 -26.13547 28.23568 5560 ft 7 kts 196°
2026-05-01 09:47 -26.13593 28.23554 5560 ft 6 kts 196°
2026-05-01 09:47 -26.13629 28.23542 5561 ft 4 kts 196°
2026-05-01 09:47 -26.13663 28.23532 5561 ft 6 kts 196°
2026-05-01 09:48 -26.13731 28.23511 5563 ft 13 kts 196°
2026-05-01 09:48 -26.13848 28.23476 5565 ft 20 kts 195°
2026-05-01 09:48 -26.14010 28.23425 5568 ft 27 kts 196°
2026-05-01 09:48 -26.14209 28.23364 5572 ft 31 kts 196°
2026-05-01 09:49 -26.14391 28.23307 5575 ft 16 kts 195°
2026-05-01 09:49 -26.14465 28.23285 5578 ft 8 kts 194°
2026-05-01 09:49 -26.14513 28.23280 5578 ft 5 kts 181°
2026-05-01 09:49 -26.14543 28.23281 5579 ft 2 kts 173°
2026-05-01 09:50 -26.14554 28.23284 5579 ft 0 kts 168°
2026-05-01 09:50 -26.14558 28.23285 5579 ft 1 kts 163°
2026-05-01 09:50 -26.14565 28.23288 5579 ft 1 kts 154°
2026-05-01 09:50 -26.14567 28.23289 5579 ft 0 kts 151°
2026-05-01 09:54 -26.14567 28.23290 5578 ft 0 kts 151°
2026-05-01 09:55 -26.14586 28.23307 5577 ft 6 kts 128°
2026-05-01 09:55 -26.14613 28.23373 5575 ft 10 kts 107°
2026-05-01 09:55 -26.14621 28.23436 5573 ft 5 kts 55°
2026-05-01 09:55 -26.14603 28.23446 5572 ft 0 kts 16°
2026-05-01 09:56 -26.14548 28.23463 5571 ft 28 kts 15°
2026-05-01 09:56 -26.14180 28.23575 5558 ft 80 kts 15°
2026-05-01 09:56 -26.13495 28.23787 5546 ft 125 kts 15°
2026-05-01 09:56 -26.12507 28.24094 5522 ft 165 kts 15°
2026-05-01 09:57 -26.11300 28.24474 5572 ft 191 kts 13°
2026-05-01 09:57 -26.09984 28.24888 5744 ft 200 kts 13°
2026-05-01 09:57 -26.08620 28.25329 6109 ft 206 kts 17°
2026-05-01 09:57 -26.07250 28.25854 6569 ft 208 kts 15°
2026-05-01 09:58 -26.05910 28.26369 6928 ft 218 kts 15°
2026-05-01 09:58 -26.04366 28.26811 6990 ft 234 kts
2026-05-01 09:58 -26.02687 28.27286 6973 ft 262 kts 21°
2026-05-01 09:58 -26.01169 28.28508 6959 ft 284 kts 50°
2026-05-01 09:59 -26.00353 28.30529 7449 ft 292 kts 76°
2026-05-01 09:59 -26.00013 28.32760 7892 ft 302 kts 80°
2026-05-01 09:59 -25.99649 28.35055 7961 ft 299 kts 76°
2026-05-01 09:59 -25.99233 28.37332 7971 ft 303 kts 77°
2026-05-01 10:00 -25.98790 28.39640 7968 ft 303 kts 76°
2026-05-01 10:00 -25.98350 28.41903 7966 ft 302 kts 76°
2026-05-01 10:00 -25.97904 28.44183 7969 ft 303 kts 77°
2026-05-01 10:00 -25.97455 28.46482 7971 ft 302 kts 75°
2026-05-01 10:01 -25.97014 28.48731 7964 ft 301 kts 75°
2026-05-01 10:01 -25.96570 28.50996 7963 ft 301 kts 76°
2026-05-01 10:01 -25.96122 28.53276 7968 ft 303 kts 76°
2026-05-01 10:01 -25.95673 28.55569 7970 ft 301 kts 75°
2026-05-01 10:02 -25.95226 28.57835 7967 ft 302 kts 76°
2026-05-01 10:02 -25.94779 28.60113 7967 ft 301 kts 75°
2026-05-01 10:02 -25.94334 28.62372 7969 ft 301 kts 75°
2026-05-01 10:02 -25.93846 28.64632 7967 ft 300 kts 70°
2026-05-01 10:03 -25.93120 28.66797 7963 ft 299 kts 61°
2026-05-01 10:03 -25.92147 28.68815 7962 ft 296 kts 53°
2026-05-01 10:03 -25.90960 28.70643 7959 ft 292 kts 45°
2026-05-01 10:03 -25.89551 28.72287 8101 ft 297 kts 37°
2026-05-01 10:04 -25.88005 28.73801 8892 ft 295 kts 36°
2026-05-01 10:04 -25.86478 28.75291 9625 ft 297 kts 36°
2026-05-01 10:04 -25.84895 28.76844 10241 ft 303 kts 36°
2026-05-01 10:04 -25.83324 28.78392 10924 ft 305 kts 36°
2026-05-01 10:05 -25.81739 28.79956 11561 ft 309 kts 36°
2026-05-01 10:05 -25.80118 28.81550 12018 ft 320 kts 36°
2026-05-01 10:05 -25.78408 28.83230 12318 ft 337 kts 36°
2026-05-01 10:05 -25.76610 28.84998 12607 ft 355 kts 36°
2026-05-01 10:06 -25.74711 28.86867 12906 ft 373 kts 36°
2026-05-01 10:06 -25.72740 28.88806 13268 ft 388 kts 36°
2026-05-01 10:06 -25.70652 28.90859 13629 ft 404 kts 37°
2026-05-01 10:06 -25.68539 28.92937 14012 ft 417 kts 37°
2026-05-01 10:07 -25.66337 28.95103 14627 ft 423 kts 37°
2026-05-01 10:07 -25.64177 28.97314 15277 ft 429 kts 41°
2026-05-01 10:07 -25.62129 28.99714 15855 ft 436 kts 43°
2026-05-01 10:07 -25.60035 29.02204 16303 ft 445 kts 43°
2026-05-01 10:08 -25.55750 29.07294 17396 ft 454 kts 44°
2026-05-01 10:08 -25.53599 29.09845 17955 ft 458 kts 43°
2026-05-01 10:08 -25.51416 29.12430 18509 ft 462 kts 43°
2026-05-01 10:09 -25.49224 29.15025 19123 ft 465 kts 43°
2026-05-01 10:09 -25.47030 29.17619 19732 ft 467 kts 43°
2026-05-01 10:09 -25.44800 29.20254 20351 ft 469 kts 42°
2026-05-01 10:09 -25.42573 29.22897 20910 ft 472 kts 42°
2026-05-01 10:10 -25.40339 29.25563 21509 ft 475 kts 42°
2026-05-01 10:10 -25.38081 29.28256 22060 ft 478 kts 41°
2026-05-01 10:10 -25.33545 29.33657 23229 ft 482 kts 41°
2026-05-01 10:11 -25.31274 29.36360 23770 ft 484 kts 41°
2026-05-01 10:11 -25.28994 29.39070 24284 ft 487 kts 41°
2026-05-01 10:11 -25.26665 29.41837 24813 ft 490 kts 41°
2026-05-01 10:11 -25.24354 29.44578 25274 ft 494 kts 40°
2026-05-01 10:12 -25.21993 29.47379 25756 ft 497 kts 40°
2026-05-01 10:12 -25.19662 29.50144 26342 ft 498 kts 40°
2026-05-01 10:12 -25.14918 29.55763 27327 ft 503 kts 40°
2026-05-01 10:13 -25.12546 29.58570 27788 ft 506 kts 40°
2026-05-01 10:13 -25.10131 29.61425 28220 ft 509 kts 40°
2026-05-01 10:13 -25.07706 29.64291 28670 ft 512 kts 40°
2026-05-01 10:14 -25.02843 29.70034 29590 ft 516 kts 39°
2026-05-01 10:14 -25.00377 29.72946 30148 ft 514 kts 39°
2026-05-01 10:14 -24.97950 29.75810 30707 ft 512 kts 39°
2026-05-01 10:14 -24.95530 29.78662 31223 ft 511 kts 39°
2026-05-01 10:15 -24.93096 29.81529 31679 ft 511 kts 39°
2026-05-01 10:15 -24.90676 29.84377 32097 ft 511 kts 39°
2026-05-01 10:15 -24.88267 29.87210 32549 ft 511 kts 39°
2026-05-01 10:15 -24.85830 29.90075 33054 ft 510 kts 39°
2026-05-01 10:16 -24.83421 29.92902 33203 ft 514 kts 39°
2026-05-01 10:16 -24.80992 29.95776 33220 ft 510 kts 39°
2026-05-01 10:17 -24.73795 30.04302 33219 ft 507 kts 39°
2026-05-01 10:17 -24.66592 30.12826 33203 ft 510 kts 39°
2026-05-01 10:18 -24.59373 30.21382 33179 ft 510 kts 40°
2026-05-01 10:19 -24.54573 30.27146 33182 ft 510 kts 40°
2026-05-01 10:19 -24.49809 30.32859 33176 ft 510 kts 40°
2026-05-01 10:20 -24.42603 30.41483 33173 ft 510 kts 40°
2026-05-01 10:20 -24.37817 30.47201 33162 ft 510 kts 40°
2026-05-01 10:21 -24.30630 30.55774 33124 ft 510 kts 40°
2026-05-01 10:22 -24.23444 30.64329 33090 ft 508 kts 40°
2026-05-01 10:23 -24.16223 30.72910 33066 ft 510 kts 40°
2026-05-01 10:23 -24.09054 30.81413 33070 ft 510 kts 40°
2026-05-01 10:24 -23.99442 30.92792 33060 ft 509 kts 40°
2026-05-01 10:25 -23.89842 31.04130 33050 ft 507 kts 40°
2026-05-01 10:26 -23.85037 31.09793 33058 ft 508 kts 40°
2026-05-01 10:27 -23.75447 31.21078 33047 ft 508 kts 41°
2026-05-01 10:28 -23.68249 31.29532 33043 ft 507 kts 41°
2026-05-01 10:28 -23.61042 31.37981 33046 ft 508 kts 41°
2026-05-01 10:29 -23.53837 31.46414 33045 ft 506 kts 41°
2026-05-01 10:30 -23.44056 31.57420 33042 ft 499 kts 34°
2026-05-01 10:31 -23.33250 31.66913 33028 ft 500 kts 33°
2026-05-01 10:32 -23.25150 31.73995 33032 ft 500 kts 33°
2026-05-01 10:33 -23.14318 31.83448 33030 ft 501 kts 33°
2026-05-01 10:34 -23.06235 31.90491 33028 ft 497 kts 33°
2026-05-01 10:34 -23.00496 31.94520 33024 ft 487 kts 19°
2026-05-01 10:35 -22.94064 31.96566 33023 ft 475 kts
2026-05-01 10:35 -22.90797 31.96812 33021 ft 471 kts 355°
2026-05-01 10:35 -22.84359 31.95931 33032 ft 463 kts 345°
2026-05-01 10:36 -22.74915 31.93896 33034 ft 462 kts 345°
2026-05-01 10:37 -22.68588 31.92527 33034 ft 464 kts 345°
2026-05-01 10:37 -22.59057 31.90465 33035 ft 465 kts 345°
2026-05-01 10:38 -22.52689 31.89088 33034 ft 466 kts 345°
2026-05-01 10:38 -22.46323 31.87712 33040 ft 466 kts 345°
2026-05-01 10:39 -22.39975 31.86342 33045 ft 467 kts 345°
2026-05-01 10:39 -22.33555 31.84957 33046 ft 469 kts 345°
2026-05-01 10:40 -22.27188 31.83585 33052 ft 468 kts 345°
2026-05-01 10:40 -22.20797 31.82209 33056 ft 467 kts 345°
2026-05-01 10:41 -22.14420 31.80837 33066 ft 468 kts 345°
2026-05-01 10:42 -22.04799 31.78769 33070 ft 469 kts 346°
2026-05-01 10:42 -21.98401 31.77396 33073 ft 470 kts 346°
2026-05-01 10:43 -21.91973 31.76098 33082 ft 472 kts 348°
2026-05-01 10:43 -21.85466 31.75069 33074 ft 471 kts 348°
2026-05-01 10:44 -21.78970 31.74033 33077 ft 472 kts 348°
2026-05-01 10:44 -21.72464 31.72987 33073 ft 473 kts 348°
2026-05-01 10:45 -21.65948 31.71934 33067 ft 473 kts 348°
2026-05-01 10:45 -21.59422 31.70878 33065 ft 474 kts 348°
2026-05-01 10:46 -21.52876 31.69819 33065 ft 474 kts 348°
2026-05-01 10:46 -21.46360 31.68764 33067 ft 475 kts 348°
2026-05-01 10:47 -21.39783 31.67700 33066 ft 476 kts 348°
2026-05-01 10:47 -21.33259 31.66646 33063 ft 476 kts 348°
2026-05-01 10:48 -21.26704 31.65587 33062 ft 477 kts 348°
2026-05-01 10:48 -21.20093 31.64521 33060 ft 477 kts 348°
2026-05-01 10:49 -21.13556 31.63467 33063 ft 477 kts 348°
2026-05-01 10:49 -21.06954 31.62403 33060 ft 477 kts 348°
2026-05-01 10:50 -21.00370 31.61344 33056 ft 477 kts 348°
2026-05-01 10:50 -20.93818 31.60290 33061 ft 477 kts 349°
2026-05-01 10:51 -20.87214 31.59229 33070 ft 479 kts 349°
2026-05-01 10:51 -20.80621 31.58171 33076 ft 479 kts 349°
2026-05-01 10:52 -20.74042 31.57116 33075 ft 478 kts 349°
2026-05-01 10:52 -20.67426 31.56056 33080 ft 478 kts 349°
2026-05-01 10:53 -20.60834 31.55000 33099 ft 479 kts 349°
2026-05-01 10:53 -20.54243 31.53946 33110 ft 479 kts 349°
2026-05-01 10:54 -20.47639 31.52890 33108 ft 481 kts 349°
2026-05-01 10:54 -20.41059 31.51840 33124 ft 479 kts 349°
2026-05-01 10:55 -20.34414 31.50780 33129 ft 481 kts 349°
2026-05-01 10:55 -20.27830 31.49730 33148 ft 480 kts 349°
2026-05-01 10:56 -20.21173 31.48670 33158 ft 481 kts 349°
2026-05-01 10:56 -20.14573 31.47620 33165 ft 481 kts 349°
2026-05-01 10:57 -20.07921 31.46562 33170 ft 482 kts 349°
2026-05-01 10:57 -20.01295 31.45510 33191 ft 483 kts 349°
2026-05-01 10:58 -19.94665 31.44458 33190 ft 481 kts 349°
2026-05-01 10:58 -19.88023 31.43404 33194 ft 482 kts 349°
2026-05-01 10:59 -19.81375 31.42351 33200 ft 481 kts 350°
2026-05-01 10:59 -19.74747 31.41302 33202 ft 483 kts 350°
2026-05-01 11:00 -19.68081 31.40247 33201 ft 482 kts 350°
2026-05-01 11:00 -19.61428 31.39196 33210 ft 483 kts 350°
2026-05-01 11:01 -19.54762 31.38143 33207 ft 483 kts 350°
2026-05-01 11:01 -19.48121 31.37094 33218 ft 483 kts 350°
2026-05-01 11:02 -19.41501 31.36032 33223 ft 483 kts 350°
2026-05-01 11:02 -19.34839 31.34963 33221 ft 484 kts 350°
2026-05-01 11:03 -19.28166 31.33895 33221 ft 483 kts 350°
2026-05-01 11:03 -19.21501 31.32828 33231 ft 485 kts 351°
2026-05-01 11:04 -19.14803 31.31758 33240 ft 484 kts 351°
2026-05-01 11:04 -19.08153 31.30695 33245 ft 485 kts 351°
2026-05-01 11:05 -19.01474 31.29617 33256 ft 485 kts 350°
2026-05-01 11:05 -18.94787 31.28537 33260 ft 485 kts 351°
2026-05-01 11:06 -18.88121 31.27462 33264 ft 485 kts 351°
2026-05-01 11:06 -18.81432 31.26384 33267 ft 486 kts 351°
2026-05-01 11:07 -18.71432 31.24775 33260 ft 485 kts 351°
2026-05-01 11:07 -18.64694 31.23691 33266 ft 486 kts 351°
2026-05-01 11:08 -18.58039 31.22622 33274 ft 486 kts 351°
2026-05-01 11:09 -18.47979 31.21008 33272 ft 487 kts 351°
2026-05-01 11:09 -18.41284 31.19935 33277 ft 485 kts 351°
2026-05-01 11:10 -18.31240 31.18326 33282 ft 486 kts 351°
2026-05-01 11:10 -18.24535 31.17253 33282 ft 488 kts 351°
2026-05-01 11:11 -18.17816 31.16179 33278 ft 488 kts 351°
2026-05-01 11:11 -18.11080 31.15103 33283 ft 489 kts 351°
2026-05-01 11:12 -18.04329 31.14025 33276 ft 488 kts 351°
2026-05-01 11:12 -17.97642 31.12958 33278 ft 487 kts 351°
2026-05-01 11:13 -17.90865 31.12365 33274 ft 487 kts
2026-05-01 11:13 -17.84185 31.13620 33286 ft 490 kts 13°
2026-05-01 11:14 -17.77600 31.15402 33282 ft 489 kts 13°
2026-05-01 11:14 -17.70962 31.17201 33278 ft 489 kts 13°
2026-05-01 11:15 -17.64414 31.18973 33280 ft 487 kts 13°
2026-05-01 11:15 -17.57816 31.20756 33268 ft 487 kts 13°
2026-05-01 11:16 -17.51296 31.22516 33267 ft 485 kts 13°
2026-05-01 11:16 -17.44735 31.24286 33255 ft 485 kts 13°
2026-05-01 11:17 -17.38158 31.26059 33247 ft 486 kts 13°
2026-05-01 11:17 -17.31636 31.27816 33232 ft 483 kts 13°
2026-05-01 11:18 -17.25129 31.29567 33218 ft 483 kts 13°
2026-05-01 11:18 -17.18638 31.31313 33227 ft 481 kts 13°
2026-05-01 11:19 -17.12149 31.33057 33226 ft 481 kts 12°
2026-05-01 11:19 -17.05651 31.34802 33234 ft 481 kts 13°
2026-05-01 11:20 -16.99162 31.36544 33228 ft 479 kts 13°
2026-05-01 11:20 -16.92681 31.38282 33222 ft 479 kts 12°
2026-05-01 11:21 -16.86255 31.40004 33215 ft 479 kts 13°
2026-05-01 11:21 -16.79788 31.41736 33193 ft 478 kts 13°
2026-05-01 11:22 -16.73311 31.43469 33189 ft 479 kts 13°
2026-05-01 11:22 -16.66837 31.45200 33184 ft 479 kts 13°
2026-05-01 11:23 -16.60374 31.46927 33176 ft 479 kts 13°
2026-05-01 11:23 -16.53938 31.48646 33168 ft 478 kts 13°
2026-05-01 11:24 -16.47484 31.50368 33169 ft 478 kts 13°
2026-05-01 11:25 -16.37795 31.52952 33138 ft 479 kts 13°
2026-05-01 11:25 -16.28109 31.55532 33094 ft 479 kts 13°
2026-05-01 11:26 -16.18399 31.58115 33070 ft 479 kts 13°
2026-05-01 11:27 -16.11935 31.59650 33067 ft 478 kts 12°
2026-05-01 11:27 -16.05418 31.61161 33067 ft 479 kts 12°
2026-05-01 11:28 -15.98894 31.62680 33071 ft 479 kts 12°
2026-05-01 11:28 -15.92400 31.64194 33067 ft 479 kts 12°
2026-05-01 11:29 -15.82622 31.66476 33063 ft 479 kts 12°
2026-05-01 11:30 -15.72880 31.68750 33063 ft 478 kts 12°
2026-05-01 11:30 -15.66358 31.70271 33070 ft 479 kts 12°
2026-05-01 11:31 -15.59844 31.71789 33084 ft 480 kts 12°
2026-05-01 11:31 -15.53335 31.73306 33088 ft 479 kts 12°
2026-05-01 11:32 -15.46890 31.75018 33095 ft 480 kts 15°
2026-05-01 11:32 -15.40411 31.76872 33102 ft 479 kts 15°
2026-05-01 11:33 -15.33970 31.78701 33121 ft 480 kts 15°
2026-05-01 11:33 -15.27546 31.80517 33134 ft 480 kts 15°
2026-05-01 11:34 -15.21076 31.82341 33147 ft 480 kts 15°
2026-05-01 11:34 -15.14610 31.84160 33157 ft 481 kts 15°
2026-05-01 11:35 -15.08173 31.85968 33163 ft 481 kts 15°
2026-05-01 11:35 -15.01666 31.87795 33176 ft 481 kts 15°
2026-05-01 11:36 -14.95202 31.89608 33177 ft 482 kts 15°
2026-05-01 11:36 -14.88754 31.91415 33180 ft 481 kts 15°
2026-05-01 11:37 -14.82296 31.93224 33177 ft 481 kts 15°
2026-05-01 11:37 -14.75821 31.95037 33179 ft 481 kts 15°
2026-05-01 11:38 -14.69310 31.96858 33165 ft 480 kts 15°
2026-05-01 11:38 -14.62859 31.98661 33164 ft 482 kts 15°
2026-05-01 11:39 -14.56418 32.00461 33159 ft 481 kts 15°
2026-05-01 11:39 -14.49912 32.02278 33157 ft 481 kts 15°
2026-05-01 11:40 -14.43461 32.04078 33153 ft 481 kts 15°
2026-05-01 11:40 -14.36978 32.05886 33149 ft 480 kts 15°
2026-05-01 11:41 -14.30493 32.07607 33149 ft 481 kts 14°
2026-05-01 11:41 -14.24038 32.09300 33151 ft 480 kts 14°
2026-05-01 11:42 -14.17514 32.11012 33155 ft 481 kts 15°
2026-05-01 11:42 -14.11026 32.12717 33159 ft 480 kts 14°
2026-05-01 11:43 -14.04533 32.14422 33166 ft 481 kts 15°
2026-05-01 11:43 -13.98074 32.16118 33168 ft 480 kts 15°
2026-05-01 11:44 -13.88320 32.18678 33163 ft 481 kts 15°
2026-05-01 11:44 -13.81824 32.20382 33151 ft 480 kts 15°
2026-05-01 11:45 -13.75350 32.22080 33144 ft 481 kts 15°
2026-05-01 11:45 -13.68869 32.23777 33136 ft 480 kts 15°
2026-05-01 11:46 -13.62357 32.25483 33130 ft 480 kts 15°
2026-05-01 11:46 -13.55904 32.27181 33125 ft 480 kts 15°
2026-05-01 11:47 -13.49460 32.28956 33119 ft 479 kts 15°
2026-05-01 11:47 -13.42965 32.30745 33109 ft 482 kts 15°
2026-05-01 11:48 -13.36492 32.32506 33106 ft 481 kts 14°
2026-05-01 11:48 -13.29968 32.33971 33109 ft 480 kts 13°
2026-05-01 11:49 -13.23381 32.35435 33102 ft 481 kts 13°
2026-05-01 11:49 -13.16867 32.36894 33104 ft 479 kts 13°
2026-05-01 11:50 -13.10329 32.38361 33103 ft 479 kts 13°
2026-05-01 11:50 -13.03821 32.39825 33104 ft 481 kts 13°
2026-05-01 11:51 -12.97245 32.41305 33104 ft 481 kts 13°
2026-05-01 11:51 -12.90730 32.42771 33104 ft 480 kts 13°
2026-05-01 11:52 -12.84152 32.44251 33099 ft 480 kts 13°
2026-05-01 11:52 -12.77665 32.45710 33097 ft 478 kts 13°
2026-05-01 11:53 -12.71122 32.47181 33097 ft 479 kts 13°
2026-05-01 11:53 -12.64588 32.48649 33099 ft 481 kts 13°
2026-05-01 11:54 -12.58029 32.50122 33105 ft 481 kts 13°
2026-05-01 11:54 -12.51506 32.51586 33107 ft 480 kts 13°
2026-05-01 11:55 -12.44948 32.53057 33105 ft 480 kts 13°
2026-05-01 11:55 -12.38447 32.54514 33103 ft 479 kts 13°
2026-05-01 11:56 -12.31914 32.55978 33106 ft 479 kts 13°
2026-05-01 11:56 -12.25396 32.57439 33104 ft 480 kts 13°
2026-05-01 11:57 -12.18840 32.58906 33105 ft 480 kts 13°
2026-05-01 11:57 -12.12368 32.60617 33105 ft 480 kts 16°
2026-05-01 11:58 -12.05934 32.62379 33105 ft 480 kts 16°
2026-05-01 11:59 -11.96242 32.65013 33115 ft 479 kts 16°
2026-05-01 11:59 -11.89778 32.66762 33116 ft 478 kts 16°
2026-05-01 12:00 -11.80097 32.69375 33117 ft 480 kts 16°
2026-05-01 12:01 -11.70392 32.71991 33131 ft 479 kts 16°
2026-05-01 12:01 -11.63963 32.73722 33134 ft 478 kts 16°
2026-05-01 12:02 -11.57483 32.75466 33128 ft 477 kts 16°
2026-05-01 12:02 -11.51091 32.77185 33127 ft 477 kts 16°
2026-05-01 12:03 -11.44621 32.78925 33129 ft 480 kts 16°
2026-05-01 12:03 -11.38164 32.80660 33133 ft 478 kts 16°
2026-05-01 12:04 -11.31718 32.82391 33128 ft 480 kts 16°
2026-05-01 12:04 -11.25223 32.84135 33135 ft 479 kts 16°
2026-05-01 12:05 -11.18785 32.85862 33127 ft 479 kts 16°
2026-05-01 12:05 -11.09093 32.88461 33133 ft 479 kts 17°
2026-05-01 12:06 -11.02634 32.90192 33128 ft 478 kts 16°
2026-05-01 12:06 -10.96202 32.91916 33120 ft 477 kts 17°
2026-05-01 12:07 -10.89778 32.93636 33127 ft 480 kts 17°
2026-05-01 12:07 -10.83310 32.95367 33120 ft 477 kts 17°
2026-05-01 12:08 -10.76894 32.97083 33105 ft 477 kts 17°
2026-05-01 12:08 -10.70446 32.98808 33109 ft 479 kts 17°
2026-05-01 12:09 -10.63993 33.00533 33120 ft 480 kts 17°
2026-05-01 12:09 -10.57501 33.02268 33121 ft 479 kts 17°
2026-05-01 12:10 -10.47808 33.04856 33126 ft 478 kts 17°
2026-05-01 12:11 -10.38101 33.07446 33139 ft 480 kts 17°
2026-05-01 12:11 -10.31600 33.09181 33147 ft 483 kts 17°
2026-05-01 12:12 -10.25094 33.10915 33163 ft 482 kts 17°
2026-05-01 12:12 -10.18586 33.12649 33168 ft 483 kts 17°
2026-05-01 12:13 -10.12090 33.14379 33169 ft 482 kts 17°
2026-05-01 12:13 -10.05595 33.16109 33176 ft 483 kts 16°
2026-05-01 12:14 -9.99068 33.17847 33175 ft 484 kts 17°
2026-05-01 12:14 -9.92525 33.19587 33175 ft 484 kts 17°
2026-05-01 12:15 -9.86011 33.21320 33182 ft 485 kts 17°
2026-05-01 12:15 -9.79489 33.23053 33180 ft 485 kts 17°
2026-05-01 12:16 -9.72963 33.24788 33172 ft 484 kts 16°
2026-05-01 12:16 -9.66446 33.26519 33187 ft 483 kts 16°
2026-05-01 12:17 -9.59921 33.28251 33183 ft 484 kts 16°
2026-05-01 12:17 -9.53398 33.29982 33184 ft 483 kts 17°
2026-05-01 12:18 -9.46874 33.31707 33207 ft 484 kts 16°
2026-05-01 12:18 -9.40334 33.33384 33214 ft 486 kts 16°
2026-05-01 12:19 -9.33770 33.35066 33231 ft 487 kts 16°
2026-05-01 12:19 -9.27182 33.36766 33239 ft 485 kts 16°
2026-05-01 12:20 -9.20627 33.38468 33266 ft 484 kts 16°
2026-05-01 12:20 -9.14112 33.40158 33273 ft 485 kts 16°
2026-05-01 12:21 -9.07586 33.41850 33300 ft 483 kts 16°
2026-05-01 12:21 -9.01021 33.43552 33313 ft 485 kts 16°
2026-05-01 12:22 -8.94478 33.45247 33310 ft 485 kts 16°
2026-05-01 12:22 -8.88245 33.47684 33330 ft 481 kts 26°
2026-05-01 12:23 -8.82158 33.50525 33305 ft 482 kts 26°
2026-05-01 12:23 -8.76050 33.53375 33304 ft 481 kts 26°
2026-05-01 12:24 -8.69959 33.56215 33291 ft 482 kts 26°
2026-05-01 12:24 -8.63851 33.59060 33272 ft 482 kts 26°
2026-05-01 12:25 -8.54717 33.63311 33259 ft 481 kts 26°
2026-05-01 12:26 -8.48645 33.66136 33244 ft 483 kts 26°
2026-05-01 12:26 -8.39480 33.70398 33233 ft 482 kts 25°
2026-05-01 12:27 -8.30337 33.74647 33224 ft 482 kts 25°
2026-05-01 12:28 -8.21214 33.78884 33244 ft 481 kts 25°
2026-05-01 12:29 -8.12029 33.83149 33223 ft 483 kts 25°
2026-05-01 12:29 -8.02853 33.87407 33232 ft 484 kts 25°
2026-05-01 12:30 -7.93675 33.91663 33220 ft 483 kts 25°
2026-05-01 12:31 -7.87560 33.94498 33219 ft 485 kts 25°
2026-05-01 12:31 -7.81436 33.97336 33221 ft 483 kts 25°
2026-05-01 12:32 -7.75314 34.00172 33232 ft 483 kts 25°
2026-05-01 12:32 -7.66148 34.04417 33206 ft 483 kts 25°
2026-05-01 12:33 -7.60022 34.07253 33195 ft 485 kts 25°
2026-05-01 12:33 -7.53884 34.10094 33178 ft 484 kts 25°
2026-05-01 12:34 -7.47758 34.12928 33171 ft 482 kts 25°
2026-05-01 12:34 -7.41663 34.15747 33163 ft 483 kts 25°
2026-05-01 12:35 -7.35569 34.18564 33167 ft 481 kts 25°
2026-05-01 12:35 -7.29431 34.21402 33164 ft 485 kts 25°
2026-05-01 12:36 -7.23334 34.24218 33165 ft 484 kts 25°
2026-05-01 12:36 -7.17222 34.27042 33154 ft 481 kts 25°
2026-05-01 12:37 -7.11092 34.29873 33145 ft 484 kts 25°
2026-05-01 12:37 -7.05004 34.32684 33145 ft 481 kts 25°
2026-05-01 12:38 -6.98875 34.35512 33144 ft 483 kts 25°
2026-05-01 12:38 -6.92795 34.38318 33145 ft 482 kts 25°
2026-05-01 12:39 -6.86648 34.41153 33143 ft 483 kts 25°
2026-05-01 12:39 -6.80534 34.43972 33142 ft 484 kts 25°
2026-05-01 12:40 -6.74426 34.46788 33145 ft 482 kts 25°
2026-05-01 12:40 -6.68277 34.49622 33148 ft 485 kts 25°
2026-05-01 12:41 -6.62132 34.52453 33138 ft 484 kts 25°
2026-05-01 12:41 -6.56039 34.55259 33141 ft 485 kts 25°
2026-05-01 12:42 -6.49874 34.58099 33137 ft 485 kts 25°
2026-05-01 12:42 -6.43757 34.60915 33132 ft 485 kts 25°
2026-05-01 12:43 -6.37604 34.63747 33122 ft 484 kts 25°
2026-05-01 12:43 -6.31484 34.66563 33123 ft 487 kts 25°
2026-05-01 12:44 -6.25299 34.69408 33113 ft 487 kts 25°
2026-05-01 12:45 -6.12966 34.75079 33119 ft 487 kts 25°
2026-05-01 12:45 -6.06783 34.77921 33114 ft 486 kts 25°
2026-05-01 12:46 -6.00648 34.80740 33114 ft 487 kts 25°
2026-05-01 12:46 -5.94459 34.83583 33112 ft 490 kts 25°
2026-05-01 12:47 -5.88247 34.86436 33113 ft 488 kts 25°
2026-05-01 12:47 -5.82104 34.89257 33112 ft 487 kts 25°
2026-05-01 12:48 -5.75949 34.92083 33118 ft 486 kts 25°
2026-05-01 12:48 -5.69760 34.94929 33125 ft 488 kts 25°
2026-05-01 12:49 -5.63572 34.97772 33128 ft 487 kts 25°
2026-05-01 12:49 -5.57397 35.00609 33137 ft 488 kts 25°
2026-05-01 12:50 -5.51220 35.03446 33142 ft 488 kts 25°
2026-05-01 12:50 -5.45062 35.06274 33144 ft 488 kts 25°
2026-05-01 12:51 -5.38899 35.09104 33149 ft 486 kts 25°
2026-05-01 12:52 -5.29632 35.13357 33160 ft 486 kts 25°
2026-05-01 12:52 -5.20406 35.17590 33173 ft 487 kts 25°
2026-05-01 12:53 -5.11135 35.21836 33178 ft 487 kts 25°
2026-05-01 12:54 -5.04989 35.24646 33181 ft 487 kts 25°
2026-05-01 12:54 -4.95720 35.28883 33190 ft 485 kts 25°
2026-05-01 12:55 -4.86474 35.33109 33199 ft 486 kts 25°
2026-05-01 12:56 -4.80336 35.35914 33205 ft 487 kts 25°
2026-05-01 12:56 -4.74161 35.38734 33203 ft 486 kts 25°
2026-05-01 12:57 -4.67972 35.41562 33201 ft 487 kts 25°
2026-05-01 12:57 -4.58746 35.45775 33201 ft 486 kts 25°
2026-05-01 12:58 -4.52602 35.48581 33198 ft 486 kts 25°
2026-05-01 12:59 -4.43318 35.52821 33198 ft 487 kts 25°
2026-05-01 12:59 -4.34102 35.57029 33192 ft 487 kts 25°
2026-05-01 13:00 -4.24827 35.61262 33185 ft 486 kts 24°
2026-05-01 13:01 -4.15557 35.65417 33185 ft 487 kts 24°
2026-05-01 13:02 -4.06245 35.69582 33176 ft 487 kts 24°
2026-05-01 13:07 -3.38510 36.00722 33139 ft 486 kts 24°
2026-05-01 13:08 -3.32312 36.03551 33141 ft 488 kts 24°
2026-05-01 13:08 -3.26158 36.06360 33145 ft 488 kts 24°
2026-05-01 13:09 -3.19971 36.09184 33142 ft 487 kts 24°
2026-05-01 13:09 -3.13708 36.11770 33137 ft 487 kts 15°
2026-05-01 13:10 -3.06981 36.12854 33135 ft 487 kts
2026-05-01 13:10 -3.00246 36.13523 33127 ft 486 kts
2026-05-01 13:11 -2.93513 36.14189 33129 ft 488 kts
2026-05-01 13:11 -2.86718 36.14864 33129 ft 487 kts
2026-05-01 13:12 -2.79942 36.15537 33132 ft 488 kts
2026-05-01 13:12 -2.73196 36.16207 33139 ft 488 kts
2026-05-01 13:13 -2.66429 36.16884 33124 ft 487 kts
2026-05-01 13:13 -2.59687 36.17559 33115 ft 486 kts
2026-05-01 13:14 -2.52922 36.18236 33098 ft 488 kts
2026-05-01 13:14 -2.46142 36.18915 33095 ft 488 kts
2026-05-01 13:15 -2.39374 36.19593 33081 ft 488 kts
2026-05-01 13:15 -2.32605 36.20270 33082 ft 488 kts
2026-05-01 13:16 -2.25821 36.20949 33085 ft 486 kts
2026-05-01 13:16 -2.19086 36.21623 33082 ft 486 kts
2026-05-01 13:17 -2.05567 36.22972 33068 ft 488 kts
2026-05-01 13:18 -1.95406 36.23986 33062 ft 489 kts
2026-05-01 13:18 -1.88638 36.24661 33084 ft 487 kts
2026-05-01 13:19 -1.81838 36.25340 33081 ft 488 kts
2026-05-01 13:20 -1.71719 36.26349 33107 ft 488 kts
2026-05-01 13:20 -1.64939 36.27026 33130 ft 488 kts
2026-05-01 13:21 -1.54757 36.28041 33156 ft 489 kts
2026-05-01 13:21 -1.47981 36.28717 33177 ft 488 kts
2026-05-01 13:22 -1.41240 36.29390 33206 ft 488 kts
2026-05-01 13:22 -1.34466 36.30065 33225 ft 489 kts
2026-05-01 13:23 -1.27673 36.30743 33227 ft 487 kts
2026-05-01 13:23 -1.20905 36.31418 33248 ft 488 kts
2026-05-01 13:24 -1.14133 36.32093 33264 ft 487 kts
2026-05-01 13:25 -1.03978 36.33119 33277 ft 488 kts
2026-05-01 13:25 -0.97233 36.33808 33290 ft 488 kts
2026-05-01 13:26 -0.90456 36.34500 33289 ft 489 kts
2026-05-01 13:26 -0.83685 36.35191 33300 ft 487 kts
2026-05-01 13:27 -0.76905 36.35856 33313 ft 488 kts
2026-05-01 13:27 -0.66754 36.36841 33317 ft 488 kts
2026-05-01 13:28 -0.56571 36.37833 33314 ft 489 kts
2026-05-01 13:29 -0.43018 36.39185 33322 ft 489 kts
2026-05-01 13:31 -0.22621 36.41220 33348 ft 489 kts
2026-05-01 13:32 -0.05636 36.42913 33330 ft 489 kts
2026-05-01 13:33 0.11289 36.44601 33290 ft 488 kts
2026-05-01 13:34 0.24868 36.45955 33264 ft 489 kts
2026-05-01 13:35 0.35055 36.46971 33248 ft 487 kts
2026-05-01 13:36 0.45184 36.47980 33238 ft 487 kts
2026-05-01 13:36 0.55336 36.48993 33243 ft 487 kts
2026-05-01 13:37 0.62084 36.49666 33236 ft 486 kts
2026-05-01 13:37 0.68803 36.50336 33218 ft 486 kts
2026-05-01 13:38 0.78936 36.51347 33203 ft 486 kts
2026-05-01 13:39 0.85711 36.52022 33202 ft 485 kts
2026-05-01 13:39 0.92435 36.52693 33187 ft 485 kts
2026-05-01 13:40 0.99143 36.53422 33175 ft 484 kts 10°
2026-05-01 13:40 1.05678 36.55158 33178 ft 486 kts 16°
2026-05-01 13:41 1.12168 36.57074 33177 ft 485 kts 16°
2026-05-01 13:41 1.18666 36.58989 33174 ft 485 kts 16°
2026-05-01 13:42 1.25147 36.60898 33174 ft 485 kts 16°
2026-05-01 13:42 1.31621 36.62804 33167 ft 484 kts 16°
2026-05-01 13:43 1.38079 36.64705 33150 ft 485 kts 16°
2026-05-01 13:43 1.44565 36.66615 33147 ft 484 kts 16°
2026-05-01 13:44 1.51057 36.68525 33134 ft 485 kts 16°
2026-05-01 13:44 1.57558 36.70439 33138 ft 484 kts 16°
2026-05-01 13:45 1.64045 36.72349 33125 ft 485 kts 16°
2026-05-01 13:45 1.70495 36.74247 33123 ft 484 kts 16°
2026-05-01 13:46 1.76995 36.76161 33117 ft 483 kts 16°
2026-05-01 13:46 1.83436 36.78057 33120 ft 483 kts 16°
2026-05-01 13:47 1.89923 36.79967 33106 ft 485 kts 16°
2026-05-01 13:47 1.96383 36.81869 33102 ft 485 kts 16°
2026-05-01 13:48 2.02883 36.83784 33102 ft 485 kts 16°
2026-05-01 13:48 2.09335 36.85684 33090 ft 484 kts 16°
2026-05-01 13:49 2.15817 36.87593 33084 ft 483 kts 16°
2026-05-01 13:49 2.22291 36.89500 33079 ft 484 kts 16°
2026-05-01 13:50 2.28769 36.91408 33058 ft 484 kts 16°
2026-05-01 13:50 2.35256 36.93319 33052 ft 485 kts 16°
2026-05-01 13:51 2.41701 36.95218 33032 ft 486 kts 16°
2026-05-01 13:51 2.48220 36.97139 33032 ft 483 kts 16°
2026-05-01 13:52 2.54652 36.99035 33011 ft 484 kts 16°
2026-05-01 13:52 2.61137 37.00946 33014 ft 485 kts 16°
2026-05-01 13:53 2.67665 37.02870 33009 ft 485 kts 16°
2026-05-01 13:53 2.77358 37.05728 32996 ft 486 kts 16°
2026-05-01 13:54 2.83861 37.07645 32974 ft 486 kts 16°
2026-05-01 13:54 2.90354 37.09560 32959 ft 486 kts 16°
2026-05-01 13:55 2.96845 37.11475 32945 ft 485 kts 16°
2026-05-01 13:55 3.03365 37.13398 32934 ft 486 kts 16°
2026-05-01 13:56 3.09877 37.15319 32930 ft 486 kts 16°
2026-05-01 13:56 3.16379 37.17237 32931 ft 486 kts 16°
2026-05-01 13:57 3.22829 37.19140 32930 ft 486 kts 16°
2026-05-01 13:57 3.29325 37.21057 32930 ft 485 kts 16°
2026-05-01 13:58 3.35836 37.22979 32932 ft 486 kts 16°
2026-05-01 13:58 3.42351 37.24902 32935 ft 486 kts 16°
2026-05-01 13:59 3.48839 37.26818 32941 ft 485 kts 16°
2026-05-01 13:59 3.55301 37.28725 32947 ft 485 kts 16°
2026-05-01 14:00 3.61791 37.30642 32950 ft 486 kts 16°
2026-05-01 14:00 3.68316 37.32570 32958 ft 485 kts 16°
2026-05-01 14:01 3.74786 37.34481 32970 ft 485 kts 16°
2026-05-01 14:01 3.81298 37.36404 32978 ft 486 kts 16°
2026-05-01 14:02 3.87736 37.38307 32992 ft 484 kts 16°
2026-05-01 14:02 3.94215 37.40222 33007 ft 484 kts 16°
2026-05-01 14:03 4.00716 37.42140 33013 ft 483 kts 16°
2026-05-01 14:03 4.07234 37.43905 33025 ft 484 kts 15°
2026-05-01 14:04 4.13744 37.45655 33035 ft 485 kts 15°
2026-05-01 14:04 4.20257 37.47411 33037 ft 484 kts 15°
2026-05-01 14:05 4.26793 37.49176 33054 ft 485 kts 15°
2026-05-01 14:05 4.33297 37.50935 33066 ft 486 kts 15°
2026-05-01 14:06 4.39838 37.52705 33074 ft 484 kts 15°
2026-05-01 14:06 4.46357 37.54469 33077 ft 485 kts 15°
2026-05-01 14:07 4.52878 37.56235 33093 ft 483 kts 15°
2026-05-01 14:08 4.62634 37.58878 33101 ft 484 kts 15°
2026-05-01 14:08 4.69155 37.60645 33112 ft 483 kts 15°
2026-05-01 14:09 4.75689 37.62415 33115 ft 485 kts 15°
2026-05-01 14:09 4.82177 37.64174 33123 ft 484 kts 15°
2026-05-01 14:10 4.88686 37.65938 33148 ft 484 kts 15°
2026-05-01 14:10 4.95223 37.67711 33130 ft 484 kts 15°
2026-05-01 14:11 5.01728 37.69476 33155 ft 483 kts 15°
2026-05-01 14:11 5.11518 37.72131 33149 ft 483 kts 15°
2026-05-01 14:12 5.18004 37.73891 33137 ft 484 kts 15°
2026-05-01 14:12 5.24528 37.75662 33144 ft 483 kts 15°
2026-05-01 14:13 5.29922 37.77126 33145 ft 485 kts 15°
2026-05-01 14:13 5.37526 37.79191 33167 ft 484 kts 15°
2026-05-01 14:14 5.44070 37.80969 33160 ft 484 kts 15°
2026-05-01 14:14 5.50600 37.82742 33189 ft 484 kts 15°
2026-05-01 14:15 5.57114 37.84512 33200 ft 485 kts 15°
2026-05-01 14:15 5.63627 37.86282 33202 ft 485 kts 15°
2026-05-01 14:16 5.70155 37.88057 33209 ft 486 kts 15°
2026-05-01 14:16 5.76670 37.89829 33205 ft 484 kts 15°
2026-05-01 14:17 5.83199 37.91604 33196 ft 486 kts 15°
2026-05-01 14:17 5.89719 37.93378 33187 ft 484 kts 15°
2026-05-01 14:18 5.96214 37.95145 33180 ft 485 kts 15°
2026-05-01 14:18 6.01678 37.96632 33181 ft 485 kts 15°
2026-05-01 14:19 6.09276 37.98701 33201 ft 486 kts 15°
2026-05-01 14:19 6.15849 38.00491 33217 ft 486 kts 15°
2026-05-01 14:20 6.25646 38.03159 33249 ft 485 kts 15°
2026-05-01 14:21 6.32184 38.04941 33241 ft 485 kts 15°
2026-05-01 14:21 6.38727 38.06724 33229 ft 486 kts 15°
2026-05-01 14:22 6.48500 38.09389 33205 ft 486 kts 15°
2026-05-01 14:22 6.55056 38.11175 33204 ft 486 kts 15°
2026-05-01 14:23 6.61597 38.12946 33227 ft 486 kts 15°
2026-05-01 14:23 6.68132 38.14715 33228 ft 485 kts 15°
2026-05-01 14:24 6.74687 38.16490 33250 ft 486 kts 15°
2026-05-01 14:24 6.81177 38.18249 33257 ft 485 kts 15°
2026-05-01 14:25 6.87706 38.20018 33278 ft 486 kts 15°
2026-05-01 14:25 6.94266 38.21797 33291 ft 486 kts 15°
2026-05-01 14:26 7.04098 38.24464 33298 ft 486 kts 15°
2026-05-01 14:27 7.10659 38.26244 33311 ft 486 kts 15°
2026-05-01 14:27 7.17208 38.28022 33323 ft 486 kts 15°
2026-05-01 14:28 7.26997 38.30680 33325 ft 485 kts 15°
2026-05-01 14:28 7.33508 38.32448 33333 ft 486 kts 15°
2026-05-01 14:29 7.40088 38.34236 33335 ft 486 kts 15°
2026-05-01 14:30 7.53192 38.37708 33336 ft 485 kts 13°
2026-05-01 14:31 7.63028 38.40135 33344 ft 484 kts 13°
2026-05-01 14:31 7.69601 38.41764 33353 ft 486 kts 13°
2026-05-01 14:32 7.76135 38.43385 33355 ft 484 kts 13°
2026-05-01 14:32 7.82716 38.45021 33369 ft 484 kts 13°
2026-05-01 14:33 7.89295 38.46657 33385 ft 485 kts 13°
2026-05-01 14:33 7.95851 38.48288 33369 ft 484 kts 14°
2026-05-01 14:34 8.02406 38.49920 33392 ft 484 kts 14°
2026-05-01 14:34 8.08954 38.51551 33379 ft 483 kts 14°
2026-05-01 14:35 8.15471 38.53175 33384 ft 483 kts 13°
2026-05-01 14:35 8.22054 38.54818 33399 ft 485 kts 13°
2026-05-01 14:36 8.28591 38.56451 33388 ft 485 kts 14°
2026-05-01 14:36 8.35169 38.58095 33408 ft 485 kts 14°
2026-05-01 14:37 8.41728 38.59734 33426 ft 485 kts 14°
2026-05-01 14:37 8.48245 38.61364 33424 ft 483 kts 14°
2026-05-01 14:38 8.54787 38.63001 33431 ft 484 kts 14°
2026-05-01 14:38 8.61322 38.64636 33425 ft 484 kts 14°
2026-05-01 14:39 8.67866 38.66274 33425 ft 485 kts 14°
2026-05-01 14:39 8.74446 38.67922 33405 ft 484 kts 14°
2026-05-01 14:40 8.81040 38.69574 33398 ft 484 kts 14°
2026-05-01 14:40 8.87603 38.71218 33391 ft 484 kts 14°
2026-05-01 14:41 8.94121 38.72853 33380 ft 483 kts 14°
2026-05-01 14:41 9.00672 38.74496 33383 ft 484 kts 14°
2026-05-01 14:42 9.07357 38.75447 33388 ft 485 kts 359°
2026-05-01 14:42 9.14022 38.74409 33403 ft 485 kts 342°
2026-05-01 14:43 9.20128 38.71537 33447 ft 486 kts 331°
2026-05-01 14:43 9.26002 38.68145 33475 ft 485 kts 331°
2026-05-01 14:44 9.31885 38.64745 33458 ft 486 kts 331°
2026-05-01 14:44 9.40725 38.59640 33455 ft 486 kts 331°
2026-05-01 14:45 9.49511 38.54567 33388 ft 486 kts 330°
2026-05-01 14:46 9.55415 38.51157 33377 ft 485 kts 330°
2026-05-01 14:46 9.64214 38.46072 33399 ft 486 kts 330°
2026-05-01 14:47 9.70069 38.42687 33413 ft 486 kts 330°
2026-05-01 14:48 9.78908 38.37574 33396 ft 485 kts 330°
2026-05-01 14:48 9.87720 38.32475 33365 ft 485 kts 330°
2026-05-01 14:49 9.99450 38.25681 33368 ft 486 kts 330°
2026-05-01 14:50 10.11179 38.18882 33340 ft 485 kts 330°
2026-05-01 14:51 10.19962 38.13787 33352 ft 485 kts 330°
2026-05-01 14:52 10.28753 38.08684 33379 ft 484 kts 330°
2026-05-01 14:53 10.37498 38.03605 33406 ft 483 kts 330°
2026-05-01 14:53 10.43353 38.00203 33422 ft 483 kts 330°
2026-05-01 14:54 10.49174 37.96818 33423 ft 484 kts 330°
2026-05-01 14:54 10.55054 37.93398 33465 ft 484 kts 330°
2026-05-01 14:55 10.60875 37.90011 33492 ft 484 kts 330°
2026-05-01 14:55 10.66736 37.86599 33511 ft 484 kts 330°
2026-05-01 14:56 10.72582 37.83195 33539 ft 482 kts 329°
2026-05-01 14:56 10.78398 37.79807 33551 ft 483 kts 329°
2026-05-01 14:57 10.84249 37.76395 33533 ft 485 kts 329°
2026-05-01 14:57 10.93042 37.71268 33511 ft 485 kts 329°
2026-05-01 14:58 10.98891 37.67854 33498 ft 484 kts 329°
2026-05-01 14:58 11.04722 37.64450 33485 ft 484 kts 329°
2026-05-01 14:59 11.10554 37.61044 33483 ft 485 kts 329°
2026-05-01 14:59 11.16423 37.57614 33464 ft 485 kts 329°
2026-05-01 15:00 11.25242 37.52457 33458 ft 485 kts 329°
2026-05-01 15:01 11.31096 37.49032 33440 ft 485 kts 329°
2026-05-01 15:01 11.36944 37.45609 33415 ft 485 kts 329°
2026-05-01 15:02 11.42804 37.42178 33394 ft 484 kts 329°
2026-05-01 15:02 11.48661 37.38747 33388 ft 485 kts 329°
2026-05-01 15:03 11.54510 37.35318 33393 ft 485 kts 329°
2026-05-01 15:03 11.60367 37.31883 33396 ft 484 kts 328°
2026-05-01 15:04 11.66322 37.28635 33391 ft 485 kts 331°
2026-05-01 15:04 11.72344 37.25450 33382 ft 486 kts 331°
2026-05-01 15:05 11.78317 37.22277 33371 ft 485 kts 330°
2026-05-01 15:05 11.84312 37.19085 33353 ft 485 kts 330°
2026-05-01 15:06 11.90277 37.15903 33362 ft 485 kts 330°
2026-05-01 15:06 11.96291 37.12692 33321 ft 484 kts 330°
2026-05-01 15:07 12.02229 37.09518 33303 ft 485 kts 330°
2026-05-01 15:07 12.08198 37.06325 33301 ft 485 kts 330°
2026-05-01 15:08 12.14195 37.03117 33309 ft 486 kts 330°
2026-05-01 15:08 12.20186 36.99909 33312 ft 485 kts 330°
2026-05-01 15:09 12.26180 36.96698 33302 ft 486 kts 330°
2026-05-01 15:09 12.32154 36.93496 33274 ft 485 kts 331°
2026-05-01 15:10 12.38117 36.90298 33243 ft 485 kts 330°
2026-05-01 15:10 12.47082 36.85487 33194 ft 486 kts 331°
2026-05-01 15:11 12.56087 36.80650 33125 ft 487 kts 331°
2026-05-01 15:12 12.62087 36.77425 33119 ft 487 kts 331°
2026-05-01 15:12 12.71121 36.72567 33092 ft 489 kts 330°
2026-05-01 15:14 12.86260 36.64668 33058 ft 489 kts 332°
2026-05-01 15:14 12.95391 36.59912 33049 ft 489 kts 332°
2026-05-01 15:15 13.07537 36.53586 33014 ft 491 kts 332°
2026-05-01 15:16 13.19701 36.47240 32981 ft 490 kts 332°
2026-05-01 15:18 13.34932 36.39284 32966 ft 489 kts 332°
2026-05-01 15:19 13.47045 36.32949 32938 ft 489 kts 332°
2026-05-01 15:19 13.56150 36.28182 32909 ft 490 kts 332°
2026-05-01 15:20 13.65533 36.23944 32902 ft 491 kts 345°
2026-05-01 15:21 13.72318 36.23268 32908 ft 494 kts
2026-05-01 15:21 13.79174 36.23671 32899 ft 492 kts
2026-05-01 15:22 13.89442 36.24313 32900 ft 492 kts
2026-05-01 15:22 13.96283 36.24738 32898 ft 492 kts
2026-05-01 15:23 14.03162 36.25164 32904 ft 493 kts
2026-05-01 15:23 14.10000 36.25588 32905 ft 492 kts
2026-05-01 15:24 14.16832 36.26011 32912 ft 492 kts
2026-05-01 15:24 14.23701 36.26436 32913 ft 492 kts
2026-05-01 15:25 14.30536 36.26860 32915 ft 492 kts
2026-05-01 15:25 14.37376 36.27284 32910 ft 492 kts
2026-05-01 15:26 14.44229 36.27708 32906 ft 492 kts
2026-05-01 15:26 14.51054 36.28132 32915 ft 491 kts
2026-05-01 15:27 14.57903 36.28557 32911 ft 491 kts
2026-05-01 15:28 14.68173 36.29195 32907 ft 492 kts
2026-05-01 15:28 14.75000 36.29620 32898 ft 492 kts
2026-05-01 15:29 14.85250 36.30257 32902 ft 492 kts
2026-05-01 15:30 14.98941 36.31110 32897 ft 492 kts
2026-05-01 15:31 15.19497 36.32393 32897 ft 491 kts
2026-05-01 15:32 15.33136 36.33245 32899 ft 491 kts
2026-05-01 15:34 15.53665 36.33757 32896 ft 490 kts 358°